Meteo Giornale » Osservazioni meteo Stati Uniti (USA) » Grass Valley
ore: 11:35 - Osservazioni Meteo Grass Valley
Lat. 39° 13' N Lon. 121° 0' W Alt. 961 metri s.l.m.
27 °C
Sereno
Temp. 24 Ore
19 °C
28 °C
Nord
5.5 Km/h
Dew point 2 °C
Umidità 19 %
Visibilità 10 Km
Il sole sorge alle ore 06:32
Il sole tramonta alle ore 19:36
| Data e Ora | Cielo e Fenomeni | T °C | DP °C | Um. % | Pres. hPa | Vis. km | Vento km/h | |
|---|---|---|---|---|---|---|---|---|
| Oggi h: 11:35 | Sereno | 27 | 2 | 19 | 1015 | 10 | N 5.5 | |
| Oggi h: 11:15 | Sereno | 26 | 3 | 22 | 1015 | 10 | N 7.4 | |
| Oggi h: 10:55 | Sereno | 25 | 2 | 22 | 1015 | 10 | N 0 | |
| Oggi h: 10:35 | Sereno | 24 | 4 | 27 | 1015 | 10 | N 5.5 | |
| Oggi h: 10:10 | Sereno | 24 | 5 | 29 | 1015 | 10 | S/SE 9.3 | |
| Oggi h: 09:55 | Sereno | 23 | 6 | 33 | 1015 | 10 | N 9.3 | |
| Oggi h: 09:35 | Sereno | 23 | 7 | 35 | 1015 | 10 | SE 9.3 | |
| Oggi h: 09:15 | Sereno | 22 | 6 | 35 | 1015 | 10 | N 0 | |
| Oggi h: 08:55 | Sereno | 22 | 6 | 35 | 1015 | 10 | N 0 | |
| Oggi h: 08:30 | Sereno | 21 | 6 | 37 | 1014 | 10 | SE 7.4 | |
| Oggi h: 08:15 | Sereno | 21 | 6 | 37 | 1014 | 10 | N 0 | |
| Oggi h: 07:55 | Sereno | 20 | 6 | 39 | 1014 | 10 | N 0 | |
| Oggi h: 07:35 | Sereno | 20 | 6 | 39 | 1014 | 10 | N 5.5 | |
| Oggi h: 07:15 | Sereno | 20 | 5 | 37 | 1014 | 10 | E/SE 7.4 | |
| Oggi h: 06:50 | Poco Nuvoloso | 20 | 5 | 37 | 1014 | 10 | E/SE 11.1 | |
| Oggi h: 06:35 | Nuvoloso | 20 | 5 | 37 | 1013 | 10 | E/SE 11.1 | |
| Oggi h: 06:15 | Coperto | 20 | 5 | 37 | 1013 | 10 | E/SE 7.4 | |
| Oggi h: 05:55 | Coperto | 20 | 5 | 37 | 1013 | 10 | E 9.3 | |
| Oggi h: 05:35 | Coperto | 20 | 5 | 37 | 1013 | 10 | E/SE 7.4 | |
| Oggi h: 05:10 | Coperto | 19 | 5 | 39 | 1014 | 10 | E/SE 7.4 | |
| Oggi h: 04:55 | Coperto | 20 | 5 | 37 | 1014 | 10 | N 0 | |
| Oggi h: 04:35 | Coperto | 20 | 5 | 37 | 1014 | 10 | N 0 | |
| Oggi h: 04:15 | Coperto | 20 | 4 | 34 | 1014 | 10 | N 5.5 | |
| Oggi h: 03:55 | Coperto | 20 | 4 | 34 | 1014 | 10 | N 0 | |
| Oggi h: 03:30 | Coperto | 19 | 5 | 39 | 1014 | 10 | N 0 | |
| Oggi h: 03:15 | Coperto | 19 | 5 | 39 | 1014 | 10 | N 0 | |
| Oggi h: 02:55 | Coperto | 19 | 4 | 37 | 1014 | 10 | N 0 | |
| Oggi h: 02:35 | Coperto | 19 | 4 | 37 | 1014 | 10 | N 0 | |
| Oggi h: 02:15 | Coperto | 19 | 5 | 39 | 1014 | 10 | N 0 | |
| Oggi h: 01:50 | Coperto | 21 | 4 | 32 | 1014 | 10 | N 0 | |
| Oggi h: 01:35 | Coperto | 21 | 4 | 32 | 1014 | 10 | E 9.3 | |
| Oggi h: 01:15 | Coperto | 20 | 4 | 34 | 1014 | 10 | N 0 | |
| Oggi h: 00:55 | Coperto | 21 | 4 | 32 | 1014 | 10 | N 0 | |
| Oggi h: 00:35 | Coperto | 21 | 3 | 30 | 1014 | 10 | N 0 | |
| Oggi h: 00:10 | Coperto | 21 | 3 | 30 | 1014 | 10 | N 0 | |
| Ieri h: 23:55 | Coperto | 21 | 3 | 30 | 1014 | 10 | N 0 | |
| Ieri h: 23:35 | Coperto | 21 | 3 | 30 | 1014 | 10 | N 0 | |
| Ieri h: 23:15 | Coperto | 21 | 3 | 30 | 1014 | 10 | N 0 | |
| Ieri h: 22:55 | Coperto | 22 | 4 | 30 | 1014 | 10 | N 5.5 | |
| Ieri h: 22:30 | Coperto | 21 | 4 | 32 | 1015 | 10 | E/SE 7.4 | |
| Ieri h: 22:15 | Coperto | 21 | 4 | 32 | 1015 | 10 | N 0 | |
| Ieri h: 21:55 | Coperto | 20 | 4 | 34 | 1015 | 10 | N 0 | |
| Ieri h: 21:35 | Coperto | 21 | 4 | 32 | 1015 | 10 | N 0 | |
| Ieri h: 21:15 | Coperto | 21 | 4 | 32 | 1015 | 10 | N 0 | |
| Ieri h: 20:50 | Coperto | 21 | 5 | 35 | 1015 | 10 | N 0 | |
| Ieri h: 20:35 | Coperto | 22 | 5 | 32 | 1014 | 10 | N 0 | |
| Ieri h: 20:15 | Molto Nuvoloso | 22 | 5 | 32 | 1014 | 10 | N 0 | |
| Ieri h: 19:55 | Poco Nuvoloso | 23 | 5 | 31 | 1014 | 10 | N 0 | |
| Ieri h: 19:35 | Sereno | 23 | 4 | 28 | 1014 | 10 | N 0 | |
| Ieri h: 19:10 | Sereno | 25 | 4 | 25 | 1014 | 10 | N 0 | |
| Ieri h: 18:55 | Sereno | 25 | 4 | 25 | 1014 | 10 | N 0 | |
| Ieri h: 18:35 | Sereno | 26 | 4 | 24 | 1014 | 10 | N 0 | |
| Ieri h: 18:15 | Sereno | 26 | 4 | 24 | 1014 | 10 | N 0 | |
| Ieri h: 17:55 | Sereno | 26 | 4 | 24 | 1014 | 10 | N 0 | |
| Ieri h: 17:30 | Sereno | 27 | 4 | 22 | 1015 | 10 | N 0 | |
| Ieri h: 17:15 | Sereno | 27 | 4 | 22 | 1015 | 10 | N 5.5 | |
| Ieri h: 16:55 | Sereno | 27 | 4 | 22 | 1015 | 10 | N 0 | |
| Ieri h: 16:35 | Sereno | 27 | 4 | 22 | 1015 | 10 | SO 13 | |
| Ieri h: 16:15 | Sereno | 27 | 4 | 22 | 1015 | 10 | N 7.4 | |
| Ieri h: 15:50 | Sereno | 28 | 4 | 21 | 1015 | 10 | N 5.5 | |
| Ieri h: 15:35 | Sereno | 28 | 4 | 21 | 1015 | 10 | N 0 | |
| Ieri h: 15:15 | Sereno | 28 | 4 | 21 | 1015 | 10 | N 7.4 | |
| Ieri h: 14:55 | Sereno | 28 | 4 | 21 | 1016 | 10 | N 9.3 | |
| Ieri h: 14:35 | Sereno | 27 | 4 | 22 | 1016 | 10 | N 11.1 | |
| Ieri h: 14:10 | Sereno | 27 | 4 | 22 | 1016 | 10 | N 0 | |
| Ieri h: 13:55 | Sereno | 27 | 4 | 22 | 1016 | 10 | N 7.4 | |
| Ieri h: 13:35 | Sereno | 28 | 4 | 21 | 1016 | 10 | N 5.5 | |
| Ieri h: 13:15 | Sereno | 28 | 4 | 21 | 1016 | 10 | N 0 | |
| Ieri h: 12:55 | Sereno | 28 | 4 | 21 | 1016 | 10 | SO 13 | |



